Погода в Молочных Дворах

Россия / Тульская область     53°39′09″N   37°14′06″E
темп.,
°C
ветер,
м/с
пор.,
м/с
влажн.,
%
обл.,
%
осадки,
мм/ч
давл.,
гПа
погр.,
м
15 апреля, чт
чт1500:00+12вюв2251100 0.0 101521
03:00+12всв2256100 0.0 101421
06:00+10вюв3567100 0.0 101593
09:00+13вюв2363100 0.0 1014143
12:00+17в3446100 0.0 10141089
15:00+18юв4643100 0.0 10131916
18:00+14ююз2569100 0.5 1013268
21:00+11вюв2585100 5.4 1015191
16 апреля, пт
пт1600:00+11в4882100 0.6 1015160
03:00+10всв479284 1.1 1015192
06:00+9в4989100 0.0 1016205
09:00+12вюв487698 0.0 1017415
12:00+15вюв5761100 1.3 1017911
15:00+16юв685798 3.4 10171397
18:00+13в466999 2.8 1017235
21:00+9всв3689100 3.3 1018132
17 апреля, сб
сб1700:00+9всв498833 0.1 1019239
03:00+8всв3995100 0.4 1019211
06:00+8всв51196100 0.4 1019393
09:00+9всв6990100 0.9 1019481
12:00+12в61079100 0.1 10191035
15:00+14всв81367100 0.4 10171313
18:00+12вюв81378100 2.5 1017913
21:00+10всв61282100 2.8 1018616
18 апреля, вс
вс1800:00+9всв41092100 1.1 1019481
03:00+9всв61083100 1.4 1019655
06:00+7св71280100 0.1 1019595
09:00+7всв71179100 0.1 1020629
12:00+7всв6983100 0.3 1021614
15:00+7всв71084100 0.4 1022771
18:00+7всв5988100 0.0 1023531
21:00+5св489581 0.0 1023237
19 апреля, пн
пн1900:00+4св499699 0.0 1023264
03:00+4св39945 0.0 1024212
06:00+5св51284100 0.0 1024526
09:00+7всв61179100 0.0 1024751
12:00+10всв796585 0.0 10241321
15:00+9всв6969100 0.1 10241351
18:00+9всв5972100 0.1 1024812
21:00+7всв51074100 0.1 1025595